Location: Azul
(36.7830°S, 59.8500°W)
Time: 08:54:33
(UTC-03:00)

XW-2C - Visible Passes

Search period start: 22 October 2021 00:00
Search period end: 01 November 2021 00:00
Orbit: 503 x 526 km, 97.5° (Epoch: 22 October)

Date Brightness Start Highest point End Pass type
(mag) Time Alt. Az. Time Alt. Az. Time Alt. Az.
23 Oct ? 05:35:46 10° NE 05:39:02 27° ESE 05:42:21 10° SSE visible
24 Oct ? 05:21:18 10° ENE 05:23:59 19° ESE 05:26:43 10° SSE visible
24 Oct ? 20:02:53 10° SSW 20:05:05 15° WSW 20:07:15 10° WNW visible
25 Oct ? 05:07:21 10° E 05:09:00 12° ESE 05:10:38 10° SE visible
25 Oct ? 19:47:03 10° SSW 19:50:04 22° WSW 19:53:02 10° WNW visible
30 Oct ? 05:24:09 10° ENE 05:26:59 20° ESE 05:29:52 10° SSE visible
30 Oct ? 20:06:08 10° SW 20:08:04 14° WSW 20:09:59 10° W visible
31 Oct ? 05:10:02 10° E 05:11:58 14° ESE 05:13:54 10° SE visible
